Theta_e
315 316 316 316 316 317 316 316 316 317 319 321 322 323 323 321 317 304 298 307 317 327 323 303 305 309 306 301 305 304 297 294 295 295 297 298 300 302 306 305 308 311 309 311 326
314 315 315 316 316 316 316 316 315 316 318 319 321 323 322 319 305 300 309 321 324 326 307 300 300 307 300 299 301 297 293 297 301 301 300 300 301 304 305 306 307 309 315 322 326
314 314 314 314 315 315 316 316 315 316 318 319 321 321 320 312 297 296 319 321 324 323 312 306 305 306 299 299 298 297 293 297 302 304 305 302 301 303 304 302 306 309 313 321 324
312 313 313 314 314 315 315 315 315 316 317 319 320 320 317 304 286 307 320 321 324 317 311 302 300 301 297 294 297 294 297 297 302 304 304 301 303 302 304 304 309 311 319 323 323
312 312 313 313 313 314 315 315 315 315 316 317 318 317 306 295 294 305 317 316 316 314 307 300 299 301 296 298 298 294 296 299 301 301 302 304 301 302 303 305 311 317 321 322 324
312 311 312 312 313 313 313 315 315 316 316 317 318 314 298 288 301 307 307 313 312 308 304 302 300 303 300 299 296 297 298 297 300 299 300 301 301 302 304 309 313 317 317 319 321
311 311 311 312 312 312 313 314 315 316 316 316 316 311 300 294 305 305 306 309 314 310 304 304 310 305 301 298 301 300 295 295 296 297 296 297 294 299 301 308 311 313 314 317 318
311 310 311 311 311 312 313 313 314 316 315 315 315 308 296 306 306 305 306 309 314 313 309 312 313 308 302 301 298 294 293 289 293 297 297 292 289 292 297 302 307 309 310 314 317
310 311 311 311 311 312 313 313 315 314 315 315 309 305 297 309 302 304 305 307 310 311 309 313 309 302 300 294 290 291 285 287 291 296 296 292 288 292 298 296 299 303 306 309 311
311 310 310 310 310 311 313 312 313 312 312 312 309 299 303 299 303 302 304 307 306 305 305 304 299 295 293 289 283 286 286 287 288 292 294 291 291 291 295 296 295 296 297 298 300
311 310 309 309 309 310 306 301 296 297 302 297 298 298 302 307 305 299 304 306 305 299 290 299 292 289 291 291 288 290 287 285 287 293 292 291 292 294 295 294 295 295 296 297 299
310 310 309 309 309 309 301 295 299 299 292 298 297 301 306 307 298 298 306 298 297 288 294 293 288 292 295 295 291 290 285 284 289 292 290 287 289 292 293 294 295 295 295 296 296
309 309 309 309 309 301 296 296 305 306 292 292 299 300 300 304 298 298 303 299 293 290 291 288 289 294 294 292 290 287 285 285 286 288 288 284 284 285 288 290 292 293 293 293 294
309 309 309 309 297 297 294 302 304 302 283 284 293 297 301 301 295 304 304 298 294 288 291 289 292 292 291 291 291 286 291 290 289 285 281 283 276 282 283 286 287 289 289 291 292
309 308 308 307 295 293 298 301 303 294 265 285 294 304 302 296 298 298 304 300 291 289 289 283 288 290 289 290 293 288 292 290 287 283 280 280 278 281 281 284 286 284 289 290 288
308 307 307 299 295 297 300 300 295 277 265 284 293 292 294 295 296 299 297 302 298 290 289 288 293 291 291 292 294 293 290 289 287 283 275 280 280 278 282 284 284 288 289 291 291
307 307 303 300 290 299 298 290 272 269 282 281 286 291 291 291 292 294 291 291 288 283 282 286 287 292 293 289 292 291 287 279 279 278 276 278 278 281 285 285 286 287 289 290 292
307 306 301 300 298 297 290 278 264 267 276 287 289 289 286 290 291 292 290 287 292 288 284 282 279 289 292 289 287 287 287 280 274 271 274 279 277 281 286 289 291 291 293 292 292
304 295 294 297 299 294 282 265 267 269 283 285 287 283 283 287 289 288 290 289 291 291 283 282 282 290 291 292 291 286 283 286 279 275 274 276 280 285 286 287 288 290 292 292 292
292 291 291 298 296 289 276 271 269 282 286 284 278 283 278 281 285 287 287 290 290 293 293 287 281 287 290 291 291 287 290 282 280 270 269 274 276 278 283 286 288 289 290 292 294
290 283 291 297 293 281 268 270 274 283 286 283 278 279 282 283 285 285 286 289 291 291 294 290 286 284 289 286 284 286 284 285 284 280 273 270 275 281 283 285 288 289 291 292 293
286 275 290 294 277 273 276 266 281 283 286 285 285 281 279 282 281 281 285 288 292 292 289 291 287 281 284 287 289 288 285 285 278 275 277 277 277 285 285 287 288 289 291 291 292
283 282 297 294 272 277 280 272 279 281 284 283 283 286 285 282 276 281 285 291 292 292 290 291 285 275 277 284 287 285 286 287 284 283 277 274 276 287 287 287 288 289 290 291 290
285 279 287 291 282 280 279 277 273 282 282 285 284 285 283 282 283 280 282 287 290 292 295 292 286 281 276 280 283 283 285 287 285 279 280 279 279 283 287 287 288 289 290 291 291
286 282 281 279 282 282 281 278 271 273 279 283 283 283 283 279 281 280 283 285 287 291 288 288 280 281 283 283 284 283 282 286 284 285 280 283 281 284 285 287 288 288 290 290 291
284 282 281 276 282 281 282 275 279 277 277 276 279 282 283 281 281 280 282 282 282 285 284 285 271 278 273 281 282 281 283 284 286 287 285 284 283 287 287 288 287 289 289 290 291
291 291 285 282 280 280 278 279 279 281 282 282 282 281 281 283 285 286 287 286 284 284 283 282 274 277 269 279 278 275 281 283 285 288 287 283 288 289 289 289 289 289 289 290 290
Wind_Speed
15 14 15 16 16 15 11 10 9 15 18 13 11 7 6 7 10 2 6 8 5 8 11 8 4 5 1 2 2 2 5 3 4 6 3 3 4 1 1 6 1 2 4 2 11
14 15 16 16 17 16 15 7 10 13 17 15 13 9 5 5 2 6 7 7 8 7 7 5 5 7 2 1 1 4 4 8 4 5 2 2 2 7 3 3 2 2 3 6 12
15 15 16 16 17 16 13 11 8 15 15 15 13 7 3 3 3 7 3 2 4 3 2 3 4 2 1 0 3 3 5 4 3 3 3 2 3 3 8 3 7 8 6 9 11
15 14 14 16 16 18 14 9 10 12 11 15 11 5 1 2 6 2 2 3 3 1 1 3 3 2 3 4 3 4 3 2 2 1 4 5 5 4 5 3 4 5 11 11 12
15 15 15 16 16 17 18 17 12 9 12 12 9 1 2 2 7 2 6 4 1 3 2 2 4 4 5 3 3 3 3 1 1 2 1 4 2 5 5 2 3 8 10 13 12
14 15 14 15 16 17 18 17 16 11 9 8 4 4 1 3 2 5 7 5 3 2 1 3 4 3 3 2 4 5 3 1 1 1 1 3 2 4 1 2 5 8 9 8 11
13 13 14 14 15 17 16 17 16 13 8 2 7 2 1 10 3 6 5 3 2 1 2 4 3 1 2 3 1 3 4 2 2 1 1 2 2 5 1 2 5 6 5 6 7
12 12 13 15 15 17 17 17 15 12 7 2 5 4 5 3 4 5 2 3 2 3 2 4 2 1 1 1 5 4 4 3 1 3 0 4 7 3 3 3 6 6 6 7 7
10 11 13 14 16 18 18 18 14 11 7 2 2 5 6 8 3 4 3 1 3 1 2 2 1 1 2 5 4 6 3 4 2 3 2 3 7 3 3 3 5 5 6 7 6
8 10 12 15 16 18 19 20 10 5 2 1 2 2 3 5 5 5 3 2 2 1 1 2 4 2 2 3 8 6 4 4 4 2 2 3 8 2 2 1 3 6 6 6 7
10 10 12 14 15 17 12 6 6 3 4 5 5 3 1 7 2 1 3 3 1 3 4 1 2 7 5 2 2 5 3 3 1 2 3 5 7 8 5 3 7 8 8 8 9
10 10 11 13 15 16 4 4 4 2 7 4 6 4 2 2 3 2 1 3 1 3 2 3 6 5 4 2 2 3 4 2 0 2 2 2 10 8 7 7 8 9 9 10 4
10 11 10 13 15 5 3 3 8 2 4 4 2 2 1 3 1 5 2 1 2 4 4 4 1 7 4 4 5 1 5 3 1 1 3 3 7 4 4 5 5 8 7 6 9
9 9 9 13 5 4 3 9 6 2 2 6 2 3 2 1 3 0 3 1 1 6 4 3 2 5 1 3 4 4 4 5 5 3 3 2 7 6 1 7 7 9 6 8 7
6 6 6 7 2 2 5 7 6 4 6 4 3 2 3 2 2 2 3 2 3 3 5 5 3 5 4 4 6 3 5 5 4 4 2 2 2 9 3 6 9 3 3 7 6
3 3 2 3 2 4 7 6 3 6 6 5 5 3 5 3 1 3 3 8 1 2 1 2 2 1 4 2 5 7 6 7 5 3 2 5 5 6 5 6 2 2 4 3 5
1 0 3 2 1 5 4 5 7 4 2 6 3 4 3 2 5 3 9 2 3 3 2 2 1 4 1 6 3 2 6 3 2 1 6 1 1 7 10 5 3 5 2 3 5
2 5 2 1 1 5 4 7 5 5 4 3 3 3 2 3 1 4 6 6 4 3 3 5 2 5 2 2 6 4 4 7 6 4 3 2 8 8 5 4 6 7 5 4 4
6 2 2 3 1 4 6 5 8 6 4 5 0 4 5 4 1 4 5 2 5 5 1 3 1 2 2 0 1 3 2 1 8 1 3 5 7 11 4 4 1 4 5 6 5
3 2 2 4 3 5 6 4 3 3 2 3 2 5 5 5 4 2 3 1 2 2 3 3 2 2 2 2 2 4 6 2 2 3 5 4 4 6 5 6 2 4 6 5 4
4 3 3 2 4 6 4 6 5 5 2 2 2 1 1 4 3 3 1 5 5 5 5 2 3 3 2 4 6 3 3 2 4 3 5 1 6 7 6 6 7 7 6 5 5
3 3 3 3 5 3 2 6 5 4 1 2 2 1 3 1 2 2 3 2 7 3 5 2 2 4 4 3 3 2 2 4 4 5 3 2 7 3 7 7 6 7 5 3 4
3 1 1 2 4 3 3 5 3 3 3 1 2 3 2 2 2 2 3 0 2 6 1 3 3 2 4 2 0 5 6 4 3 2 6 5 7 2 4 3 4 6 5 5 4
3 2 1 3 2 5 4 4 3 3 4 3 3 1 2 3 0 1 2 3 3 5 5 5 1 1 2 3 3 4 5 9 7 2 8 8 5 4 5 5 4 6 6 7 7
2 3 3 4 5 8 5 3 1 3 2 3 3 6 5 3 2 3 2 4 3 3 2 3 4 2 2 3 1 2 7 8 12 21 11 18 11 8 5 6 6 4 5 5 6
6 5 1 2 2 11 9 6 11 4 5 6 6 3 6 7 5 3 2 2 2 1 1 1 3 2 4 8 8 5 10 9 17 22 14 14 10 5 4 4 5 7 6 8 10
2 0 3 5 4 7 7 12 10 8 8 8 10 3 7 12 4 5 5 2 3 3 3 3 4 2 6 3 1 5 14 11 9 15 14 16 25 6 8 8 7 9 10 12 10
Wind_Direction
350 346 340 340 335 333 315 319 330 344 313 324 281 267 277 298 316 335 247 223 269 338 340 303 309 334 6 358 6 127 69 176 217 153 238 142 151 88 125 118 165 147 152 304 132
350 348 347 343 340 337 331 324 329 328 299 313 299 260 278 324 307 260 256 281 315 344 348 336 319 342 359 330 27 90 129 214 193 178 203 196 187 164 138 122 227 190 74 106 135
352 350 346 348 343 336 327 322 338 308 311 307 294 241 261 328 3 244 18 234 273 349 257 283 284 302 265 335 184 156 182 199 222 177 174 213 192 171 125 240 215 196 150 149 152
354 350 347 341 342 340 337 346 332 292 313 315 300 217 207 203 211 23 325 341 318 111 292 273 237 189 199 199 190 142 224 192 146 279 166 177 137 175 187 204 331 210 150 153 169
355 351 350 341 340 341 345 343 339 312 314 323 306 3 173 183 253 314 336 3 267 118 204 234 209 154 188 203 131 161 191 188 127 72 56 119 165 178 220 329 36 124 152 167 174
353 353 350 346 338 339 338 338 337 318 277 253 314 326 112 234 258 7 343 0 29 62 314 210 250 239 172 207 182 187 139 150 343 271 89 165 201 168 238 92 105 155 176 175 183
348 354 351 350 345 337 335 330 330 327 297 175 176 341 266 242 4 326 351 338 332 32 293 233 281 80 138 156 162 118 122 56 224 241 222 161 272 228 89 113 146 188 190 197 196
348 351 352 351 347 336 332 325 323 322 322 105 58 108 255 298 313 319 318 334 268 235 234 294 310 277 226 117 28 99 58 129 264 163 289 112 254 244 356 163 192 204 222 226 224
345 345 346 347 344 335 328 320 309 330 323 127 66 87 283 313 350 327 257 22 309 321 283 280 12 136 55 113 54 7 170 193 285 208 132 136 243 244 40 168 228 231 236 241 260
338 347 345 341 341 335 327 310 289 325 29 135 68 265 311 331 306 341 276 45 333 67 35 61 47 86 22 140 193 178 192 216 206 206 147 168 251 266 196 59 256 271 264 261 261
345 343 346 341 338 335 337 346 21 325 26 303 315 297 85 305 263 355 307 99 353 71 169 118 148 200 221 223 67 135 136 149 226 356 164 214 264 237 233 274 260 260 262 254 250
340 342 342 336 338 338 351 34 79 189 307 291 275 284 15 276 331 347 30 118 135 160 156 93 239 205 166 187 81 119 125 174 323 20 140 55 271 260 255 239 215 223 237 241 236
338 342 341 331 339 30 324 5 295 263 300 298 270 238 215 291 51 328 121 104 158 152 201 172 280 161 144 151 137 110 151 169 208 86 68 336 288 269 256 273 268 253 242 242 233
333 340 341 334 38 328 344 316 341 27 341 296 359 297 93 256 249 61 270 201 246 193 159 261 349 131 138 185 143 165 186 127 125 95 233 6 273 294 303 284 270 265 252 258 255
323 336 346 54 247 16 298 313 309 65 26 269 282 303 164 226 112 344 341 325 200 181 121 242 183 157 178 203 160 196 130 115 87 78 12 340 47 275 353 288 265 324 313 275 242
301 335 34 23 42 271 317 320 26 43 268 341 324 244 173 214 155 142 16 330 321 133 100 202 291 262 215 75 147 148 90 58 52 57 340 216 167 266 237 219 356 14 32 80 103
249 250 119 130 251 326 339 31 37 127 309 332 323 343 292 192 180 190 151 223 178 127 191 29 316 302 13 84 49 166 125 42 311 217 234 6 254 264 271 235 263 313 242 128 124
117 90 351 203 23 8 47 47 77 241 259 303 313 321 265 11 133 167 163 154 255 317 140 151 230 186 177 197 187 173 201 152 194 208 267 341 237 242 237 292 274 260 164 158 151
102 11 12 319 37 60 68 54 206 214 297 345 350 2 355 7 332 343 192 184 165 188 71 147 209 348 15 56 152 197 209 140 103 94 36 231 292 299 239 245 330 199 164 183 176
86 47 316 329 77 60 74 253 247 261 314 4 77 10 4 345 343 178 183 227 133 100 51 327 174 10 341 144 36 158 173 114 14 130 239 267 272 245 285 268 167 196 215 197 179
61 54 296 353 57 49 143 230 275 265 306 352 233 56 342 345 354 315 338 34 35 313 211 168 131 330 129 216 184 151 196 105 121 145 203 270 260 220 245 237 211 220 216 210 194
95 47 302 30 56 126 177 197 298 289 149 278 281 271 200 188 324 25 335 354 0 312 178 164 168 181 180 337 317 311 224 155 150 218 244 225 266 239 245 265 220 216 209 202 196
103 141 4 94 141 192 131 293 254 287 271 268 279 213 349 258 41 359 348 5 10 23 336 173 193 90 10 5 249 222 198 199 123 103 203 155 259 310 292 294 205 187 196 194 203
94 114 318 198 149 136 205 254 267 281 270 263 281 320 26 316 155 289 259 256 237 181 175 130 352 273 200 116 339 228 222 198 182 154 238 235 275 260 241 232 225 206 194 201 211
134 208 199 186 195 187 178 155 195 276 287 298 261 219 182 219 265 245 295 304 252 243 92 137 208 160 203 261 243 273 300 252 207 225 209 251 240 239 259 238 242 231 232 225 231
157 163 86 200 192 176 189 214 208 229 155 258 213 227 205 234 186 168 198 272 280 48 215 300 285 16 285 237 203 225 255 246 237 240 235 237 274 188 254 221 200 213 227 239 229
222 48 135 185 159 163 205 203 205 187 234 207 199 187 218 244 220 232 212 232 243 196 185 151 113 54 278 303 281 274 229 222 234 241 227 239 245 162 232 241 236 213 212 225 233